Date,TemperatureHighF,TemperatureAvgF,TemperatureLowF,DewpointHighF,DewpointAvgF,DewpointLowF,HumidityHigh,HumidityAvg,HumidityLow,PressureMaxIn,PressureMinIn,WindSpeedMaxMPH,WindSpeedAvgMPH,GustSpeedMaxMPH,PrecipitationSumIn
2013-1-1,31.4,25.8,12.4,25.0,14.3,2.2,81,62,44,29.88,29.62,24,6,24,0.00
2013-1-2,23.4,13.3,5.3,10.2,2.1,-5.7,75,61,42,30.07,29.85,25,5,25,0.00
2013-1-3,22.7,11.7,2.5,5.6,0.4,-7.2,77,60,43,30.10,29.95,12,3,12,0.00
2013-1-4,33.2,24.4,10.8,24.1,17.1,3.5,89,74,66,29.95,29.74,18,3,18,0.00
2013-1-5,32.7,28.0,25.1,24.5,19.5,16.3,74,70,67,30.25,29.74,11,4,11,0.00
2013-1-6,36.8,28.9,21.3,27.4,22.6,15.2,87,77,67,30.23,29.91,17,2,17,0.00
2013-1-7,31.8,26.1,20.5,27.6,20.5,14.1,91,79,65,30.39,29.93,14,3,14,0.00
2013-1-8,42.2,32.2,20.1,26.6,23.5,13.9,94,71,49,30.35,30.19,21,3,21,0.00
2013-1-9,41.6,32.1,22.3,36.2,27.5,20.6,93,83,72,30.41,29.89,16,2,16,0.00
2013-1-10,43.5,38.0,32.5,33.4,27.3,22.7,88,66,50,30.52,29.91,30,7,30,0.00
2013-1-11,37.3,32.4,26.8,35.6,26.1,21.3,96,78,65,30.54,30.24,11,2,11,0.02
2013-1-12,43.7,39.4,35.5,41.0,38.4,34.8,99,96,89,30.25,30.10,7,1,7,0.04
2013-1-13,46.0,41.5,38.5,46.0,41.2,38.1,100,99,98,30.15,29.94,14,2,14,0.01
2013-1-14,59.2,46.5,37.0,50.9,40.3,26.5,100,81,51,30.22,29.84,19,4,19,0.00
2013-1-15,37.4,34.6,30.8,27.3,25.5,22.9,83,69,60,30.32,30.22,13,1,13,0.00
2013-1-16,33.6,30.6,27.8,32.0,27.7,22.8,97,90,66,30.27,29.78,11,3,13,0.00
2013-1-17,39.5,29.7,17.9,32.0,21.5,0.6,97,73,34,30.12,29.77,21,4,21,0.33
2013-1-18,19.7,15.1,10.2,5.1,-3.1,-11.0,58,44,30,30.42,30.09,17,4,17,0.00
2013-1-19,41.2,33.2,16.4,30.4,20.2,3.1,69,59,51,30.36,29.85,21,4,21,0.05
2013-1-20,49.6,39.5,25.8,35.6,26.6,7.7,82,61,36,29.85,29.43,32,8,32,0.00
2013-1-21,25.9,22.1,16.7,15.4,4.7,-1.8,73,47,34,30.05,29.83,25,6,26,0.00
2013-1-22,22.4,16.2,8.9,15.0,6.5,-4.6,84,66,50,30.04,29.76,19,5,19,0.00
2013-1-23,8.9,3.6,-0.7,-4.3,-12.1,-17.3,62,48,33,30.11,30.03,25,6,25,0.00
2013-1-24,16.4,5.7,-3.4,-5.7,-10.0,-14.6,66,49,29,30.14,29.95,21,6,21,0.00
2013-1-25,21.6,11.5,0.8,3.8,-2.2,-8.0,72,54,37,30.23,30.06,11,3,11,0.00
2013-1-26,21.2,15.7,10.1,3.2,-1.8,-6.5,60,46,30,30.16,29.99,22,6,22,0.00
2013-1-27,27.0,17.9,9.8,5.4,-0.6,-6.3,62,44,30,30.44,30.15,24,5,24,0.00
2013-1-28,28.1,21.0,11.1,20.9,10.1,-6.9,93,66,27,30.44,30.06,9,2,9,0.00
2013-1-29,32.0,27.0,21.2,29.9,23.7,18.7,93,87,79,30.21,30.07,11,2,11,0.02
2013-1-30,50.7,42.7,31.6,50.3,42.2,29.8,99,98,93,30.15,29.43,22,5,22,0.26
2013-1-31,53.4,43.6,30.0,53.1,33.4,11.7,100,70,42,29.47,28.86,44,12,44,0.13